Location: Newark
(21.1200°N, 73.4000°E)
Time: 14:35:33
(UTC+00:00)

Vanguard 1 Rocket - Pass Details

Date: 23 January 2020
Orbit: 650 x 4226 km, 34.3° (Epoch: 28 February)

Event Time Altitude Azimuth Distance (km) Brightness Sun altitude
Rises 12:32:13 0° 295° (WNW) 7,254 12.7 3.1°
Reaches altitude 10° 12:36:40 10° 291° (WNW) 6,582 12.6 2.2°
Maximum altitude 12:59:38 56° 220° (SW) 4,704 11.4 -2.8°
Drops below altitude 10° 13:22:53 10° 148° (SSE) 6,569 11.6 -8.0°
Sets 13:27:26 0° 143° (SE) 7,231 11.8 -9.0°
